DateTimeUTC,F1_A11,F1_S11,BsB_S11,BsG_S11,BsR_S11,BbsB_S11,BbsG_S11,BbsR_S11,BaB_A11,BaG_A11,BaR_A11,Tu_S11,T_S11,Uu_S11,U_S11,P_S11,T1_A11
2021-04-10T15:00:00Z,00000200,20000000,,,,,,,0000.53,0000.57,0000.56,19.3,26.2,02.0,01.3,0660.4,31.2
2021-04-10T15:01:00Z,00000200,20000000,,,,,,,-000.09,-000.60,-000.34,19.3,26.2,02.0,01.3,0660.4,31.2
2021-04-10T15:02:00Z,00000200,20000000,,,,,,,-000.05,0000.69,0000.30,19.3,26.2,02.0,01.3,0660.4,31.2
2021-04-10T15:03:00Z,00000200,60000000,,,,,,,0000.95,0000.19,0000.22,19.3,26.2,02.0,01.3,0660.4,31.2
2021-04-10T15:04:00Z,00000200,40000000,0000.07,-000.11,0000.00,-000.26,0000.15,-000.07,0000.09,-000.08,0000.21,19.4,26.0,02.0,01.4,0661.3,31.2
2021-04-10T15:05:00Z,00000200,00000000,0000.22,0000.24,-000.08,-000.04,0000.10,-000.16,0000.12,0000.51,0000.24,19.4,26.0,02.3,01.5,0661.4,31.2
2021-04-10T15:06:00Z,00000200,00000000,0000.40,-000.07,-000.01,-000.46,-000.39,0000.28,0000.27,0000.25,0000.12,19.4,26.0,02.2,01.5,0661.4,31.2
2021-04-10T15:07:00Z,00000200,00000000,0000.69,0000.37,0000.07,-000.86,-000.00,0000.04,0000.20,0000.08,-000.02,19.4,26.0,02.2,01.5,0661.4,31.2
2021-04-10T15:08:00Z,00000200,00000000,0000.22,0000.30,0000.34,-000.02,-000.00,0000.25,0000.14,0000.20,0000.07,19.4,26.0,02.2,01.5,0661.4,31.2
2021-04-10T15:09:00Z,00000200,00000000,-000.11,-000.06,-000.02,0000.04,-000.08,0000.23,-000.26,-000.06,0000.33,19.4,26.0,02.2,01.5,0661.4,31.2
2021-04-10T15:10:00Z,00000200,00000000,0000.30,0000.07,-000.30,0000.26,-000.00,0000.18,0000.49,-000.00,0000.01,19.4,25.9,02.3,01.5,0661.5,31.2
2021-04-10T15:11:00Z,00000200,00000000,0000.59,0000.14,-000.04,-000.37,-000.11,-000.00,0000.07,0000.05,-000.16,19.4,26.0,02.3,01.5,0661.5,31.2
2021-04-10T15:12:00Z,00000200,00000000,0000.05,0000.23,0000.23,0000.02,-000.00,-000.37,-000.33,-000.17,0000.03,19.4,26.0,02.2,01.5,0661.5,31.2
2021-04-10T15:13:00Z,00000200,00000000,0000.32,0000.15,0000.19,0000.01,-000.08,-000.11,-000.10,0000.05,-000.09,19.4,25.9,02.1,01.4,0661.5,31.2
2021-04-10T15:14:00Z,00000200,00000000,0000.32,0000.08,0000.08,-000.10,-000.28,0000.18,-000.06,-000.16,0000.07,19.4,25.9,02.1,01.4,0661.5,31.2
2021-04-10T15:15:00Z,00000200,00000000,0000.26,0000.18,-000.01,0000.05,0000.03,0000.15,-000.59,-000.02,-000.24,19.4,25.9,02.0,01.3,0661.5,31.2
2021-04-10T15:16:00Z,00000200,01000000,0000.66,0000.08,0000.07,0000.13,-000.25,-000.11,0001.00,-000.06,0000.24,19.4,25.9,01.9,01.3,0661.5,31.2
2021-04-10T15:17:00Z,00000200,00000000,0000.26,0000.22,-000.01,0000.25,-000.06,0000.09,-000.40,0000.12,0000.11,19.4,25.9,02.0,01.4,0661.5,31.2
2021-04-10T15:18:00Z,00000200,00000000,0000.31,0000.40,0000.32,0000.28,0000.32,0000.05,0000.01,-000.27,-000.15,19.4,25.9,02.0,01.3,0661.5,31.2
2021-04-10T15:19:00Z,00000200,00000000,0000.66,0000.15,0000.19,0000.22,-000.02,-000.00,0000.18,0000.57,0000.10,19.4,25.9,02.0,01.4,0661.5,31.2
2021-04-10T15:20:00Z,00000200,00000000,0000.02,-000.13,-000.07,-000.49,0000.32,0000.46,-000.24,-000.52,-000.42,19.4,25.9,02.0,01.3,0661.5,31.2
2021-04-10T15:21:00Z,00000200,01000000,0000.28,0000.17,-000.05,0000.08,-000.14,-000.05,0000.14,0000.14,0000.45,19.4,25.9,01.9,01.3,0661.5,31.2
2021-04-10T15:22:00Z,00000200,01000000,0000.12,0000.01,0000.08,-000.09,-000.06,0000.18,-000.08,0000.28,0000.07,19.4,25.9,01.8,01.2,0661.6,31.2
2021-04-10T15:23:00Z,00000200,00000000,0001.12,0000.19,0000.18,0000.17,-000.05,0000.11,-000.02,-000.03,0000.11,19.4,25.9,01.8,01.2,0661.6,31.2
2021-04-10T15:24:00Z,00000200,01000000,0000.58,-000.06,-000.13,-000.28,-000.02,0000.09,-000.31,-000.40,-000.37,19.4,25.9,01.8,01.2,0661.6,31.2
2021-04-10T15:25:00Z,00000200,01000000,0000.07,0000.31,0000.02,0000.32,0000.11,0000.23,-000.50,-000.32,-000.12,19.4,25.9,01.6,01.1,0661.6,31.2
2021-04-10T15:26:00Z,00000200,01000000,0000.07,0000.09,0000.29,-000.25,-000.06,0000.05,-000.30,0000.16,-000.29,19.4,25.9,01.6,01.0,0661.6,31.2
2021-04-10T15:27:00Z,00000200,01000000,0000.98,0000.04,0000.10,-000.01,0000.02,0000.08,-000.06,-000.56,0000.12,19.4,25.9,01.4,00.9,0661.7,31.2
2021-04-10T15:28:00Z,00000200,01000000,0000.19,0000.45,-000.05,-000.18,-000.28,0000.06,0000.46,0000.18,0000.07,19.4,25.9,01.4,00.9,0661.6,31.2
2021-04-10T15:29:00Z,00000200,01000000,0000.46,0000.12,-000.01,0000.04,0000.04,-000.15,-000.11,0000.16,0000.00,19.4,25.9,01.6,01.1,0661.6,31.2
2021-04-10T15:30:00Z,00000200,01000000,0000.42,0000.38,0000.05,0000.08,-000.15,-000.04,0000.13,0000.14,0000.03,19.4,25.9,01.5,01.0,0661.7,31.2
2021-04-10T15:31:00Z,00000200,01000000,0000.48,0000.44,0000.12,-000.10,-000.07,0000.09,0000.22,0000.56,0000.73,19.4,25.9,01.4,01.0,0661.6,31.2
2021-04-10T15:32:00Z,00000200,01000000,0000.21,0000.34,0000.19,-000.17,0000.15,-000.08,-000.05,-000.42,-000.58,19.3,25.9,01.4,01.0,0661.6,31.2
2021-04-10T15:33:00Z,00000200,01000000,0000.64,0000.31,-000.03,0000.41,-000.01,-000.10,-000.55,-000.05,-000.10,19.3,25.8,01.3,00.9,0661.6,31.2
2021-04-10T15:34:00Z,00000200,01000000,-000.14,0000.19,0000.03,-000.05,0000.12,0000.09,-000.38,-001.23,-000.46,19.3,25.8,01.2,00.8,0661.6,31.2
2021-04-10T15:35:00Z,00000200,01000000,0000.86,0000.17,0000.03,-000.19,0000.16,-000.13,-000.98,-000.26,-000.20,19.3,25.9,01.0,00.7,0661.7,31.2
2021-04-10T15:36:00Z,00000200,01000000,0000.77,0000.01,-000.06,-000.35,-000.14,-000.01,0000.23,-000.02,-000.10,19.3,25.9,00.8,00.6,0661.6,31.2
2021-04-10T15:37:00Z,00000200,01000000,0000.24,0000.07,0000.03,0000.16,0000.04,0000.31,0000.01,-000.02,0000.25,19.3,25.8,00.8,00.5,0661.7,31.2
2021-04-10T15:38:00Z,00000200,01000000,0000.53,0000.07,-000.18,-000.33,-000.06,-000.28,-001.10,-001.43,-000.59,19.3,25.8,00.8,00.5,0661.7,31.2
2021-04-10T15:39:00Z,00000200,01000000,0001.13,0000.23,-000.20,0000.11,-000.03,-000.03,-000.54,0000.08,-000.48,19.3,25.8,00.5,00.3,0661.7,31.2
2021-04-10T15:40:00Z,00000200,01000000,0000.53,0000.01,-000.17,-000.47,0000.06,0000.15,-000.31,-000.36,0000.14,19.3,25.8,00.4,00.3,0661.7,31.2
2021-04-10T15:41:00Z,00000200,01000000,0000.21,0000.13,0000.03,0000.03,0000.02,0000.08,-000.39,-000.33,-000.44,19.3,25.8,00.4,00.2,0661.7,31.2
2021-04-10T15:42:00Z,00000200,01000000,-000.03,0000.22,0000.03,0000.23,-000.04,0000.11,-000.25,-000.06,-000.27,19.3,25.8,00.3,00.2,0661.7,31.2
2021-04-10T15:43:00Z,00000200,01000000,0000.68,0000.47,0000.37,0000.07,-000.05,-000.01,0000.03,-000.04,-000.03,19.3,25.8,00.2,00.1,0661.7,31.2
2021-04-10T15:44:00Z,00000200,01000000,-000.14,0000.09,0000.04,0000.09,-000.12,0000.04,-000.17,-000.24,-000.26,19.3,25.8,00.1,00.1,0661.7,31.2
2021-04-10T15:45:00Z,00000200,01000000,0000.17,0000.22,0000.01,0000.11,-000.01,0000.01,0000.08,-000.16,0000.33,19.3,25.8,00.2,00.1,0661.7,31.2
2021-04-10T15:46:00Z,00000200,01000000,0000.56,0000.41,-000.22,0000.09,0000.03,-000.17,-000.25,0000.03,0000.28,19.3,25.8,00.2,00.1,0661.7,31.2
2021-04-10T15:47:00Z,00000200,01000000,0000.01,-000.18,-000.07,0000.08,0000.13,-000.03,0000.12,-000.18,-000.14,19.3,25.8,00.2,00.1,0661.7,31.2
2021-04-10T15:48:00Z,00000200,01000000,0000.45,0000.12,-000.25,0000.10,-000.24,0000.02,0000.43,0000.81,0000.22,19.3,25.8,00.1,00.1,0661.7,31.2
2021-04-10T15:49:00Z,00000200,01000000,-000.18,0000.00,-000.04,-000.38,0000.08,0000.06,-000.21,-000.17,-000.54,19.2,25.8,00.2,00.1,0661.7,31.2
2021-04-10T15:50:00Z,00000200,01000000,0000.24,0000.16,0000.18,0000.39,-000.02,0000.26,0000.05,-000.08,0000.49,19.3,25.8,00.2,00.1,0661.7,31.2
2021-04-10T15:51:00Z,00000200,01000000,0000.31,0000.32,0000.14,-000.22,-000.07,0000.12,-000.22,-000.27,-000.48,19.2,25.8,00.1,00.1,0661.7,31.2
2021-04-10T15:52:00Z,00000200,01000000,0000.21,0000.13,0000.24,-000.24,0000.18,0000.21,-000.38,-000.23,-000.08,19.2,25.8,00.1,00.1,0661.7,31.2
2021-04-10T15:53:00Z,00000200,01000000,-000.18,0000.29,0000.04,-000.07,-000.10,0000.07,-000.34,-000.82,0000.08,19.2,25.8,00.0,00.0,0661.7,31.2
2021-04-10T15:54:00Z,00000200,01000000,0000.13,0000.29,-000.12,-000.35,-000.01,-000.19,0000.03,0000.61,-000.37,19.2,25.8,00.0,00.0,0661.7,31.2
2021-04-10T15:55:00Z,00000200,01000000,0000.63,-000.03,0000.10,-000.12,0000.29,0000.01,-000.11,-000.15,0000.33,19.2,25.8,00.0,00.0,0661.7,31.1
2021-04-10T15:56:00Z,00000200,01000000,0000.16,-000.03,0000.02,0000.20,-000.03,-000.05,0000.59,0000.56,0000.49,19.2,25.8,00.0,00.0,0661.7,31.2
2021-04-10T15:57:00Z,00000200,41000000,,,,,,,0002.57,0002.17,0001.34,19.2,25.8,,00.0,0661.7,31.1
2021-04-10T15:58:00Z,00000200,61000000,,,,,,,-001.24,-001.28,-000.30,19.0,25.9,00.0,00.0,0660.7,31.1
2021-04-10T15:59:00Z,00000200,21000000,,,,,,,-000.22,-000.10,-000.56,19.0,26.0,,00.0,0660.7,31.1
